This demonstration page uses our WeatherBlox Daily Observations layout. Learn more.

Left ArrowRight Arrow

39.08367, -84.50855

Hourly Observations for December 5, 2022

Temp ( °F °C ) Dew Point ( °F °C ) Humidity (%) Winds ( mph kmh ) Pressure ( in mb ) Visibility ( mi km ) Precip ( " mm )
12:53 am 00:53 Clear 22 -5.6 19 -7.2 88 88 Calm 30.18 1022 8 13 0.00 0.00
1:53 am 01:53 Clear 21 -6.1 18 -7.8 88 88 Calm 30.16 1021 8 13 0.00 0.00
2:53 am 02:53 Clear 22 -5.6 19 -7.2 88 88 Calm 30.15 1021 7 11 0.00 0.00
3:53 am 03:53 Clear 21 -6.1 18 -7.8 88 88 Calm 30.14 1021 7 11 0.00 0.00
4:53 am 04:53 Clear 20 -6.7 18 -7.8 92 92 Calm 30.13 1020 8 13 0.00 0.00
5:53 am 05:53 Clear 20 -6.7 19 -7.2 96 96 ENE 3 6 30.12 1020 7 11 0.00 0.00
6:53 am 06:53 Clear 21 -6.1 20 -6.7 95 95 Calm 30.12 1020 7 11 0.00 0.00
7:53 am 07:53 Sunny 22 -5.6 20 -6.7 92 92 Calm 30.11 1020 10 16 0.00 0.00
8:53 am 08:53 Sunny 24 -4.4 22 -5.6 91 91 Calm 30.10 1019 10 16 0.00 0.00
9:53 am 09:53 Sunny 31 -0.6 28 -2.2 89 89 Calm 30.11 1020 10 16 0.00 0.00
10:53 am 10:53 Mostly Sunny 38 3.3 29 -1.7 70 70 SSW 6 9 30.11 1020 10 16 0.00 0.00
11:53 am 11:53 Mostly Cloudy 41 5 29 -1.7 62 62 S 7 11 30.06 1018 10 16 0.00 0.00
12:53 pm 12:53 Partly Cloudy 44 6.7 29 -1.7 55 55 VRB 3 6 30.02 1017 10 16 0.00 0.00
1:53 pm 13:53 Cloudy 47 8.3 30 -1.1 51 51 Calm 30.00 1016 10 16 0.00 0.00
2:53 pm 14:53 Cloudy 47 8.3 28 -2.2 47 47 S 8 13 29.99 1016 10 16 0.00 0.00
3:53 pm 15:53 Cloudy 46 7.8 30 -1.1 53 53 S 5 7 29.99 1016 10 16 0.01 0.13
4:53 pm 16:53 Cloudy 46 7.8 30 -1.1 53 53 VRB 5 7 29.99 1016 10 16 0.00 0.00
5:53 pm 17:53 Cloudy 46 7.8 30 -1.1 53 53 S 3 6 29.99 1016 10 16 0.00 0.00
6:14 pm 18:14 Cloudy 46 7.8 32 0 58 58 SSE 7 11 29.99 1016 10 16 0.00 0.00
6:53 pm 18:53 Cloudy 44 6.7 37 2.8 76 76 SSE 7 11 29.99 1016 9 14 0.00 0.00
7:26 pm 19:26 Cloudy 43 6.1 39 3.9 86 86 S 3 6 29.99 1015 8 13 0.00 0.00
7:53 pm 19:53 Cloudy 43 6.1 40 4.4 89 89 Calm 29.98 1015 8 13 0.00 0.00
8:43 pm 20:43 Cloudy 43 6.1 41 5 93 93 Calm 29.99 1015 10 16 0.01 0.13
8:53 pm 20:53 Cloudy 43 6.1 41 5 93 93 Calm 29.98 1015 10 16 0.01 0.13
9:53 pm 21:53 Cloudy 44 6.7 42 5.6 93 93 Calm 29.98 1015 7 11 0.01 0.13
10:53 pm 22:53 Cloudy with Mist and Fog 44 6.7 42 5.6 93 93 Calm 29.98 1015 6 10 0.00 0.00
11:53 pm 23:53 Cloudy with Mist and Fog 44 6.7 43 6.1 96 96 Calm 29.98 1015 2 3 0.00 0.00

Powered by AerisWeather